Weather in Volnovakha

Ukraine / Donetsk Region     47˚35′52″N   37˚29′00″E
temp.,
°C
wind,
m/s
gust,
m/s
humid.,
%
clouds,
%
prec.,
mm/h
press.,
hPa
HPBL,
m
29 november, sun
sun2923:00+3˚ese5980100 0.0 1022220
02:00+2˚ese588291 0.0 1022183
05:00+1˚ese489182 0.0 1022178
08:00+1˚ese599653 0.0 1023244
11:00+5˚ese588060 0.0 1023343
14:00+5˚ese588280 0.0 1023328
17:00+4˚ese499499 0.0 1024260
20:00+4˚ese5119599 0.0 1024287
30 november, mon
mon3023:00+3˚ese5109593 0.0 1024281
02:00+4˚ese5109896 0.0 1024331
05:00+4˚ese61097100 0.0 1024411
08:00+4˚ese71191100 0.0 1025518
11:00+5˚ese71078100 0.0 1024611
14:00+6˚e71172100 0.0 1023711
17:00+6˚ese71274100 0.0 1023783
20:00+6˚ese71177100 0.0 1023833
1 december, tue
tue123:00+4˚e7138095 0.0 1023611
02:00+4˚e7127993 0.0 1023777
05:00+1˚e8138079 0.0 1023606
08:00+1˚e8137977 0.0 1024656
11:00+2˚e8127297 0.0 1024715
14:00+3˚e8127398 0.0 1023800
17:00+2˚e91481100 0.0 1023760
20:00+1˚e91495100 0.1 1024699
2 december, wed
wed223:00+1˚e71284100 0.4 1025716
02:00+1˚e81382100 0.5 1025566
05:00e8138594 0.0 1026592
08:00ese8138297 0.0 1026653
11:00+1˚ese81276100 0.0 1027698
14:00+2˚e81177100 0.0 1026704
17:00+1˚ese71181100 0.0 1027689
20:00+1˚ese71181100 0.0 1027660
3 december, thu
thu323:00+1˚ese71183100 0.0 1028602
02:00+1˚ese71184100 0.0 1028645
05:00+1˚ese71085100 0.0 1028531
08:00e71185100 0.0 1028501
11:00+1˚ese7108199 0.0 1028575
14:00+1˚e71180100 0.0 1028543
17:00+1˚e71181100 0.0 1028573
20:00ese7118497 0.0 1027512